Time,TemperatureF,DewpointF,PressureIn,WindDirection,WindDirectionDegrees,WindSpeedMPH,WindSpeedGustMPH,Humidity,HourlyPrecipIn,Conditions,Clouds,dailyrainin,SoftwareType,DateUTC
2013-03-23 00:04:00,51.3,28.4,29.64,SW,225,0.0,1.0,41,0.00,,,0.00,Wunderground v.1.15,2013-03-23 07:04:00,
2013-03-23 00:09:00,51.2,28.3,29.64,West,263,1.0,2.0,41,0.00,,,0.00,Wunderground v.1.15,2013-03-23 07:09:00,
2013-03-23 00:15:00,51.2,28.3,29.64,SSE,151,1.0,6.0,41,0.00,,,0.00,Wunderground v.1.15,2013-03-23 07:15:00,
2013-03-23 00:20:00,51.0,28.1,29.64,NW,304,1.0,6.0,41,0.00,,,0.00,Wunderground v.1.15,2013-03-23 07:20:00,
2013-03-23 00:25:00,50.8,28.5,29.64,NW,323,1.0,6.0,42,0.00,,,0.00,Wunderground v.1.15,2013-03-23 07:25:00,
2013-03-23 00:31:00,50.8,27.9,29.64,NNE,26,2.0,4.0,41,0.00,,,0.00,Wunderground v.1.15,2013-03-23 07:31:00,
2013-03-23 00:37:00,50.8,27.9,29.64,NNE,12,1.0,4.0,41,0.00,,,0.00,Wunderground v.1.15,2013-03-23 07:37:00,
2013-03-23 00:42:00,50.8,27.9,29.64,WNW,298,1.0,3.0,41,0.00,,,0.00,Wunderground v.1.15,2013-03-23 07:42:00,
2013-03-23 00:48:00,50.7,27.8,29.64,NW,318,2.0,4.0,41,0.00,,,0.00,Wunderground v.1.15,2013-03-23 07:48:00,
2013-03-23 00:54:00,50.8,27.9,29.64,SSW,206,3.0,8.0,41,0.00,,,0.00,Wunderground v.1.15,2013-03-23 07:54:00,
2013-03-23 01:00:00,50.7,27.8,29.64,NW,315,3.0,3.0,41,0.00,,,0.00,Wunderground v.1.15,2013-03-23 08:00:00,
2013-03-23 01:06:00,50.6,27.7,29.65,NNW,341,2.0,7.0,41,0.00,,,0.00,Wunderground v.1.15,2013-03-23 08:06:00,
2013-03-23 01:11:00,50.5,27.0,29.65,NW,311,3.0,10.0,40,0.00,,,0.00,Wunderground v.1.15,2013-03-23 08:11:00,
2013-03-23 01:17:00,50.6,27.1,29.65,NW,313,6.0,11.0,40,0.00,,,0.00,Wunderground v.1.15,2013-03-23 08:17:00,
2013-03-23 01:23:00,50.5,27.0,29.65,WNW,295,7.0,14.0,40,0.00,,,0.00,Wunderground v.1.15,2013-03-23 08:23:00,
2013-03-23 01:28:00,50.4,27.0,29.66,WNW,302,7.0,14.0,40,0.00,,,0.00,Wunderground v.1.15,2013-03-23 08:28:00,
2013-03-23 01:34:00,50.2,26.8,29.65,SW,229,5.0,8.0,40,0.00,,,0.00,Wunderground v.1.15,2013-03-23 08:34:00,
2013-03-23 01:39:00,50.0,27.2,29.65,WSW,252,5.0,9.0,41,0.00,,,0.00,Wunderground v.1.15,2013-03-23 08:39:00,
2013-03-23 01:45:00,49.9,26.5,29.65,North,355,4.0,11.0,40,0.00,,,0.00,Wunderground v.1.15,2013-03-23 08:45:00,
2013-03-23 01:50:00,49.9,26.5,29.65,WSW,241,5.0,5.0,40,0.00,,,0.00,Wunderground v.1.15,2013-03-23 08:50:00,
2013-03-23 01:56:00,49.8,26.4,29.65,WNW,287,5.0,7.0,40,0.00,,,0.00,Wunderground v.1.15,2013-03-23 08:56:00,
2013-03-23 02:02:00,49.8,26.4,29.65,West,264,4.0,10.0,40,0.00,,,0.00,Wunderground v.1.15,2013-03-23 09:02:00,
2013-03-23 02:07:00,49.9,26.5,29.65,NNE,13,5.0,10.0,40,0.00,,,0.00,Wunderground v.1.15,2013-03-23 09:07:00,
2013-03-23 02:13:00,49.9,26.5,29.65,WNW,298,6.0,16.0,40,0.00,,,0.00,Wunderground v.1.15,2013-03-23 09:13:00,
2013-03-23 02:19:00,49.7,26.3,29.64,SSW,205,6.0,16.0,40,0.00,,,0.00,Wunderground v.1.15,2013-03-23 09:19:00,
2013-03-23 02:24:00,49.6,26.2,29.65,WNW,299,5.0,12.0,40,0.00,,,0.00,Wunderground v.1.15,2013-03-23 09:24:00,
2013-03-23 02:30:00,49.3,26.6,29.65,WNW,295,4.0,7.0,41,0.00,,,0.00,Wunderground v.1.15,2013-03-23 09:30:00,
2013-03-23 02:35:00,49.0,25.7,29.65,NW,307,4.0,10.0,40,0.00,,,0.00,Wunderground v.1.15,2013-03-23 09:35:00,
2013-03-23 02:40:00,48.8,26.1,29.64,NNW,344,4.0,8.0,41,0.00,,,0.00,Wunderground v.1.15,2013-03-23 09:40:00,
2013-03-23 02:46:00,48.6,25.9,29.64,NW,321,3.0,8.0,41,0.00,,,0.00,Wunderground v.1.15,2013-03-23 09:46:00,
2013-03-23 02:52:00,48.5,25.8,29.64,NW,314,2.0,7.0,41,0.00,,,0.00,Wunderground v.1.15,2013-03-23 09:52:00,
2013-03-23 02:57:00,48.5,25.8,29.64,NW,309,3.0,7.0,41,0.00,,,0.00,Wunderground v.1.15,2013-03-23 09:57:00,
2013-03-23 03:03:00,48.4,25.8,29.64,NNW,329,2.0,5.0,41,0.00,,,0.00,Wunderground v.1.15,2013-03-23 10:03:00,
2013-03-23 03:09:00,48.1,25.5,29.64,NW,321,1.0,6.0,41,0.00,,,0.00,Wunderground v.1.15,2013-03-23 10:09:00,
2013-03-23 03:15:00,48.2,25.6,29.64,West,261,3.0,7.0,41,0.00,,,0.00,Wunderground v.1.15,2013-03-23 10:15:00,
2013-03-23 03:21:00,48.0,25.4,29.64,West,264,2.0,5.0,41,0.00,,,0.00,Wunderground v.1.15,2013-03-23 10:21:00,
2013-03-23 03:27:00,47.6,25.6,29.63,SSW,205,2.0,6.0,42,0.00,,,0.00,Wunderground v.1.15,2013-03-23 10:27:00,
2013-03-23 03:33:00,47.2,25.3,29.64,South,173,2.0,2.0,42,0.00,,,0.00,Wunderground v.1.15,2013-03-23 10:33:00,
2013-03-23 03:39:00,47.1,25.2,29.64,SSW,199,2.0,4.0,42,0.00,,,0.00,Wunderground v.1.15,2013-03-23 10:39:00,
2013-03-23 03:45:00,47.1,25.2,29.64,SW,233,3.0,3.0,42,0.00,,,0.00,Wunderground v.1.15,2013-03-23 10:45:00,
2013-03-23 03:51:00,47.1,25.2,29.64,WNW,302,3.0,3.0,42,0.00,,,0.00,Wunderground v.1.15,2013-03-23 10:51:00,
2013-03-23 03:57:00,47.1,25.2,29.64,SW,229,3.0,6.0,42,0.00,,,0.00,Wunderground v.1.15,2013-03-23 10:57:00,
2013-03-23 04:02:00,47.1,25.2,29.64,West,276,2.0,2.0,42,0.00,,,0.00,Wunderground v.1.15,2013-03-23 11:02:00,
2013-03-23 04:08:00,47.1,24.6,29.64,SW,236,2.0,8.0,41,0.00,,,0.00,Wunderground v.1.15,2013-03-23 11:08:00,
2013-03-23 04:14:00,47.0,24.5,29.65,SSE,168,2.0,3.0,41,0.00,,,0.00,Wunderground v.1.15,2013-03-23 11:14:00,
2013-03-23 04:20:00,47.0,24.5,29.65,NW,310,1.0,2.0,41,0.00,,,0.00,Wunderground v.1.15,2013-03-23 11:20:00,
2013-03-23 04:26:00,46.8,24.3,29.65,NW,307,2.0,6.0,41,0.00,,,0.00,Wunderground v.1.15,2013-03-23 11:26:00,
2013-03-23 04:32:00,46.6,24.7,29.65,NNW,344,3.0,7.0,42,0.00,,,0.00,Wunderground v.1.15,2013-03-23 11:32:00,
2013-03-23 04:37:00,46.4,24.5,29.65,NNW,340,3.0,7.0,42,0.00,,,0.00,Wunderground v.1.15,2013-03-23 11:37:00,
2013-03-23 04:43:00,46.3,24.4,29.65,NW,311,2.0,4.0,42,0.00,,,0.00,Wunderground v.1.15,2013-03-23 11:43:00,
2013-03-23 04:48:00,46.3,24.4,29.65,NW,309,3.0,7.0,42,0.00,,,0.00,Wunderground v.1.15,2013-03-23 11:48:00,
2013-03-23 04:54:00,46.4,24.5,29.66,WNW,303,4.0,5.0,42,0.00,,,0.00,Wunderground v.1.15,2013-03-23 11:54:00,
2013-03-23 05:00:00,46.3,24.4,29.66,NNW,340,2.0,6.0,42,0.00,,,0.00,Wunderground v.1.15,2013-03-23 12:00:00,
2013-03-23 05:05:00,46.4,24.5,29.66,NNW,332,4.0,6.0,42,0.00,,,0.00,Wunderground v.1.15,2013-03-23 12:05:00,
2013-03-23 05:11:00,46.5,24.6,29.67,NW,315,4.0,6.0,42,0.00,,,0.00,Wunderground v.1.15,2013-03-23 12:11:00,
2013-03-23 05:17:00,46.6,24.7,29.67,NNW,344,3.0,6.0,42,0.00,,,0.00,Wunderground v.1.15,2013-03-23 12:17:00,
2013-03-23 05:23:00,46.4,24.5,29.67,NNW,331,3.0,6.0,42,0.00,,,0.00,Wunderground v.1.15,2013-03-23 12:23:00,
2013-03-23 05:28:00,46.3,24.4,29.67,NNW,341,3.0,6.0,42,0.00,,,0.00,Wunderground v.1.15,2013-03-23 12:28:00,
2013-03-23 05:34:00,46.0,24.2,29.67,NW,322,3.0,6.0,42,0.00,,,0.00,Wunderground v.1.15,2013-03-23 12:34:00,
2013-03-23 05:39:00,45.8,24.5,29.67,North,355,2.0,6.0,43,0.00,,,0.00,Wunderground v.1.15,2013-03-23 12:39:00,
2013-03-23 05:45:00,45.4,24.2,29.68,North,355,3.0,5.0,43,0.00,,,0.00,Wunderground v.1.15,2013-03-23 12:45:00,
2013-03-23 05:50:00,45.3,24.1,29.68,North,355,3.0,3.0,43,0.00,,,0.00,Wunderground v.1.15,2013-03-23 12:50:00,
2013-03-23 05:55:00,45.3,24.1,29.68,NW,317,2.0,4.0,43,0.00,,,0.00,Wunderground v.1.15,2013-03-23 12:55:00,
2013-03-23 06:01:00,45.3,24.1,29.69,NW,321,1.0,4.0,43,0.00,,,0.00,Wunderground v.1.15,2013-03-23 13:01:00,
2013-03-23 06:07:00,45.5,23.7,29.69,NNE,22,1.0,5.0,42,0.00,,,0.00,Wunderground v.1.15,2013-03-23 13:07:00,
2013-03-23 06:13:00,45.6,23.8,29.69,NNW,338,2.0,4.0,42,0.00,,,0.00,Wunderground v.1.15,2013-03-23 13:13:00,
2013-03-23 06:18:00,45.8,24.0,29.69,NNW,340,2.0,4.0,42,0.00,,,0.00,Wunderground v.1.15,2013-03-23 13:18:00,
2013-03-23 06:23:00,45.9,24.1,29.70,NNW,344,2.0,6.0,42,0.00,,,0.00,Wunderground v.1.15,2013-03-23 13:23:00,
2013-03-23 06:28:00,45.9,24.1,29.70,North,9,3.0,6.0,42,0.00,,,0.00,Wunderground v.1.15,2013-03-23 13:28:00,
2013-03-23 06:34:00,46.0,24.2,29.70,North,355,3.0,4.0,42,0.00,,,0.00,Wunderground v.1.15,2013-03-23 13:34:00,
2013-03-23 06:39:00,46.0,24.7,29.70,NNW,327,3.0,5.0,43,0.00,,,0.00,Wunderground v.1.15,2013-03-23 13:39:00,
2013-03-23 06:45:00,46.1,24.8,29.70,NNW,328,2.0,3.0,43,0.00,,,0.00,Wunderground v.1.15,2013-03-23 13:45:00,
2013-03-23 06:50:00,46.0,24.7,29.70,NNW,327,1.0,2.0,43,0.00,,,0.00,Wunderground v.1.15,2013-03-23 13:50:00,
2013-03-23 06:55:00,45.8,24.5,29.70,NNW,327,0.0,2.0,43,0.00,,,0.00,Wunderground v.1.15,2013-03-23 13:55:00,
2013-03-23 07:00:00,45.7,24.5,29.71,NNW,328,0.0,0.0,43,0.00,,,0.00,Wunderground v.1.15,2013-03-23 14:00:00,
2013-03-23 07:06:00,46.0,24.7,29.71,NNW,328,0.0,2.0,43,0.00,,,0.00,Wunderground v.1.15,2013-03-23 14:06:00,
2013-03-23 07:12:00,45.9,24.6,29.71,NNW,327,0.0,0.0,43,0.00,,,0.00,Wunderground v.1.15,2013-03-23 14:12:00,
2013-03-23 07:18:00,45.5,24.8,29.71,NNW,327,0.0,0.0,44,0.00,,,0.00,Wunderground v.1.15,2013-03-23 14:18:00,
2013-03-23 07:24:00,45.7,25.0,29.71,NNW,328,0.0,0.0,44,0.00,,,0.00,Wunderground v.1.15,2013-03-23 14:24:00,
2013-03-23 07:30:00,46.1,24.8,29.71,NNW,327,0.0,0.0,43,0.00,,,0.00,Wunderground v.1.15,2013-03-23 14:30:00,
2013-03-23 07:36:00,46.6,25.3,29.72,NNW,327,0.0,0.0,43,0.00,,,0.00,Wunderground v.1.15,2013-03-23 14:36:00,
2013-03-23 07:42:00,47.3,25.3,29.72,NNW,328,0.0,0.0,42,0.00,,,0.00,Wunderground v.1.15,2013-03-23 14:42:00,
2013-03-23 07:48:00,48.1,25.5,29.73,NNW,328,0.0,0.0,41,0.00,,,0.00,Wunderground v.1.15,2013-03-23 14:48:00,
2013-03-23 07:54:00,48.8,25.5,29.73,NNW,328,0.0,0.0,40,0.00,,,0.00,Wunderground v.1.15,2013-03-23 14:54:00,
2013-03-23 08:00:00,49.9,26.5,29.73,NNW,327,0.0,0.0,40,0.00,,,0.00,Wunderground v.1.15,2013-03-23 15:00:00,
2013-03-23 08:05:00,50.7,26.6,29.72,NNW,328,0.0,0.0,39,0.00,,,0.00,Wunderground v.1.15,2013-03-23 15:05:00,
2013-03-23 08:11:00,51.3,26.5,29.73,NNW,327,0.0,0.0,38,0.00,,,0.00,Wunderground v.1.15,2013-03-23 15:11:00,
2013-03-23 08:16:00,51.7,26.9,29.73,NNW,328,0.0,0.0,38,0.00,,,0.00,Wunderground v.1.15,2013-03-23 15:16:00,
2013-03-23 08:22:00,52.2,26.7,29.73,NW,326,0.0,0.0,37,0.00,,,0.00,Wunderground v.1.15,2013-03-23 15:22:00,
2013-03-23 08:27:00,52.5,26.9,29.73,NW,326,0.0,0.0,37,0.00,,,0.00,Wunderground v.1.15,2013-03-23 15:27:00,
2013-03-23 08:33:00,53.2,25.5,29.73,North,9,0.0,1.0,34,0.00,,,0.00,Wunderground v.1.15,2013-03-23 15:33:00,
2013-03-23 08:38:00,53.2,24.8,29.74,NW,313,1.0,4.0,33,0.00,,,0.00,Wunderground v.1.15,2013-03-23 15:38:00,
2013-03-23 08:43:00,53.3,24.9,29.74,West,267,2.0,7.0,33,0.00,,,0.00,Wunderground v.1.15,2013-03-23 15:43:00,
2013-03-23 08:49:00,53.2,23.3,29.75,NW,317,4.0,7.0,31,0.00,,,0.00,Wunderground v.1.15,2013-03-23 15:49:00,
2013-03-23 08:54:00,53.5,23.6,29.75,NW,311,4.0,9.0,31,0.00,,,0.00,Wunderground v.1.15,2013-03-23 15:54:00,
2013-03-23 09:00:00,53.7,23.0,29.75,NNW,335,3.0,6.0,30,0.00,,,0.00,Wunderground v.1.15,2013-03-23 16:00:00,
2013-03-23 09:05:00,53.9,23.1,29.75,NNW,330,4.0,9.0,30,0.00,,,0.00,Wunderground v.1.15,2013-03-23 16:05:00,
2013-03-23 09:12:00,53.9,23.1,29.75,WSW,255,4.0,4.0,30,0.00,,,0.00,Wunderground v.1.15,2013-03-23 16:12:00,
2013-03-23 09:18:00,53.8,22.2,29.75,NW,323,5.0,9.0,29,0.00,,,0.00,Wunderground v.1.15,2013-03-23 16:18:00,
2013-03-23 09:24:00,54.0,23.2,29.75,NNW,328,6.0,8.0,30,0.00,,,0.00,Wunderground v.1.15,2013-03-23 16:24:00,
2013-03-23 09:30:00,54.3,22.7,29.75,NNW,327,6.0,6.0,29,0.00,,,0.00,Wunderground v.1.15,2013-03-23 16:30:00,
2013-03-23 09:36:00,54.6,22.9,29.75,NW,308,4.0,6.0,29,0.00,,,0.00,Wunderground v.1.15,2013-03-23 16:36:00,
2013-03-23 09:41:00,55.0,22.4,29.75,NNW,348,5.0,11.0,28,0.00,,,0.00,Wunderground v.1.15,2013-03-23 16:41:00,
2013-03-23 09:47:00,54.9,23.2,29.75,WNW,300,6.0,11.0,29,0.00,,,0.00,Wunderground v.1.15,2013-03-23 16:47:00,
2013-03-23 09:53:00,55.1,23.4,29.75,NNW,339,6.0,14.0,29,0.00,,,0.00,Wunderground v.1.15,2013-03-23 16:53:00,
2013-03-23 09:58:00,55.3,22.7,29.75,WNW,303,6.0,14.0,28,0.00,,,0.00,Wunderground v.1.15,2013-03-23 16:58:00,
2013-03-23 10:04:00,56.2,22.6,29.75,NW,315,6.0,6.0,27,0.00,,,0.00,Wunderground v.1.15,2013-03-23 17:04:00,
2013-03-23 10:09:00,56.5,20.1,29.75,NNW,327,6.0,14.0,24,0.00,,,0.00,Wunderground v.1.15,2013-03-23 17:09:00,
2013-03-23 10:15:00,56.7,22.2,29.76,West,267,6.0,10.0,26,0.00,,,0.00,Wunderground v.1.15,2013-03-23 17:15:00,
2013-03-23 10:20:00,56.5,22.9,29.77,WNW,303,5.0,5.0,27,0.00,,,0.00,Wunderground v.1.15,2013-03-23 17:20:00,
2013-03-23 10:26:00,56.5,24.6,29.76,NW,319,6.0,12.0,29,0.00,,,0.00,Wunderground v.1.15,2013-03-23 17:26:00,
2013-03-23 10:31:00,56.6,23.8,29.76,West,279,6.0,6.0,28,0.00,,,0.00,Wunderground v.1.15,2013-03-23 17:31:00,
2013-03-23 10:37:00,56.5,23.7,29.76,NW,317,5.0,11.0,28,0.00,,,0.00,Wunderground v.1.15,2013-03-23 17:37:00,
2013-03-23 10:42:00,57.1,24.3,29.76,WNW,283,6.0,9.0,28,0.00,,,0.00,Wunderground v.1.15,2013-03-23 17:42:00,
2013-03-23 10:47:00,57.1,24.3,29.76,North,350,6.0,10.0,28,0.00,,,0.00,Wunderground v.1.15,2013-03-23 17:47:00,
2013-03-23 10:52:00,57.0,24.2,29.76,NNW,333,5.0,5.0,28,0.00,,,0.00,Wunderground v.1.15,2013-03-23 17:52:00,
2013-03-23 10:58:00,57.5,25.5,29.75,NNW,341,4.0,8.0,29,0.00,,,0.00,Wunderground v.1.15,2013-03-23 17:58:00,
2013-03-23 11:03:00,58.4,26.2,29.75,North,355,2.0,3.0,29,0.00,,,0.00,Wunderground v.1.15,2013-03-23 18:03:00,
2013-03-23 11:09:00,60.0,25.0,29.75,WNW,297,1.0,3.0,26,0.00,,,0.00,Wunderground v.1.15,2013-03-23 18:09:00,
2013-03-23 11:15:00,60.0,23.1,29.75,NNW,338,4.0,12.0,24,0.00,,,0.00,Wunderground v.1.15,2013-03-23 18:15:00,
2013-03-23 11:20:00,59.3,22.5,29.75,NW,306,7.0,7.0,24,0.00,,,0.00,Wunderground v.1.15,2013-03-23 18:20:00,
2013-03-23 11:26:00,59.3,18.2,29.75,WNW,295,9.0,22.0,20,0.00,,,0.00,Wunderground v.1.15,2013-03-23 18:26:00,
2013-03-23 11:31:00,58.8,18.9,29.75,WSW,249,10.0,10.0,21,0.00,,,0.00,Wunderground v.1.15,2013-03-23 18:31:00,
2013-03-23 11:37:00,59.2,19.2,29.74,WNW,303,6.0,10.0,21,0.00,,,0.00,Wunderground v.1.15,2013-03-23 18:37:00,
2013-03-23 11:42:00,60.4,19.1,29.74,WNW,303,7.0,11.0,20,0.00,,,0.00,Wunderground v.1.15,2013-03-23 18:42:00,
2013-03-23 11:48:00,61.3,19.8,29.75,WNW,287,6.0,11.0,20,0.00,,,0.00,Wunderground v.1.15,2013-03-23 18:48:00,
2013-03-23 11:53:00,61.2,19.8,29.74,West,265,4.0,7.0,20,0.00,,,0.00,Wunderground v.1.15,2013-03-23 18:53:00,
2013-03-23 11:59:00,61.4,19.9,29.74,NW,304,7.0,11.0,20,0.00,,,0.00,Wunderground v.1.15,2013-03-23 18:59:00,
2013-03-23 12:05:00,62.0,18.0,29.74,NW,313,8.0,15.0,18,0.00,,,0.00,Wunderground v.1.15,2013-03-23 19:05:00,
2013-03-23 12:11:00,61.9,17.9,29.73,NNW,340,9.0,11.0,18,0.00,,,0.00,Wunderground v.1.15,2013-03-23 19:11:00,
2013-03-23 12:17:00,61.9,17.9,29.74,NW,315,8.0,11.0,18,0.00,,,0.00,Wunderground v.1.15,2013-03-23 19:17:00,
2013-03-23 12:22:00,62.3,18.2,29.73,North,355,7.0,14.0,18,0.00,,,0.00,Wunderground v.1.15,2013-03-23 19:22:00,
2013-03-23 12:28:00,62.5,17.0,29.73,NW,314,9.0,14.0,17,0.00,,,0.00,Wunderground v.1.15,2013-03-23 19:28:00,
2013-03-23 12:33:00,63.1,17.5,29.74,NW,321,7.0,9.0,17,0.00,,,0.00,Wunderground v.1.15,2013-03-23 19:33:00,
2013-03-23 12:39:00,63.1,16.1,29.73,NW,306,6.0,12.0,16,0.00,,,0.00,Wunderground v.1.15,2013-03-23 19:39:00,
2013-03-23 12:45:00,62.6,15.7,29.72,NW,316,8.0,12.0,16,0.00,,,0.00,Wunderground v.1.15,2013-03-23 19:45:00,
2013-03-23 12:50:00,62.9,16.0,29.73,WNW,288,9.0,9.0,16,0.00,,,0.00,Wunderground v.1.15,2013-03-23 19:50:00,
2013-03-23 12:56:00,63.8,18.1,29.74,NW,305,8.0,13.0,17,0.00,,,0.00,Wunderground v.1.15,2013-03-23 19:56:00,
2013-03-23 13:01:00,63.4,16.4,29.74,NW,313,8.0,8.0,16,0.00,,,0.00,Wunderground v.1.15,2013-03-23 20:01:00,
2013-03-23 13:07:00,64.2,17.0,29.73,NW,318,7.0,18.0,16,0.00,,,0.00,Wunderground v.1.15,2013-03-23 20:07:00,
2013-03-23 13:12:00,64.3,15.6,29.73,NW,309,7.0,12.0,15,0.00,,,0.00,Wunderground v.1.15,2013-03-23 20:12:00,
2013-03-23 13:18:00,64.3,17.1,29.73,NW,312,7.0,12.0,16,0.00,,,0.00,Wunderground v.1.15,2013-03-23 20:18:00,
2013-03-23 13:24:00,64.0,16.8,29.73,SW,219,8.0,15.0,16,0.00,,,0.00,Wunderground v.1.15,2013-03-23 20:24:00,
2013-03-23 13:30:00,64.7,17.4,29.73,NNW,327,7.0,11.0,16,0.00,,,0.00,Wunderground v.1.15,2013-03-23 20:30:00,
2013-03-23 13:35:00,64.1,16.9,29.74,NNW,333,9.0,13.0,16,0.00,,,0.00,Wunderground v.1.15,2013-03-23 20:35:00,
2013-03-23 13:41:00,64.6,17.3,29.73,NNW,334,9.0,9.0,16,0.00,,,0.00,Wunderground v.1.15,2013-03-23 20:41:00,
2013-03-23 13:47:00,64.1,18.3,29.73,NW,315,9.0,23.0,17,0.00,,,0.00,Wunderground v.1.15,2013-03-23 20:47:00,
2013-03-23 13:53:00,64.0,18.3,29.73,WNW,297,11.0,11.0,17,0.00,,,0.00,Wunderground v.1.15,2013-03-23 20:53:00,
2013-03-23 13:58:00,64.2,19.8,29.72,NNW,334,8.0,15.0,18,0.00,,,0.00,Wunderground v.1.15,2013-03-23 20:58:00,
2013-03-23 14:04:00,64.1,19.7,29.72,NNW,332,10.0,16.0,18,0.00,,,0.00,Wunderground v.1.15,2013-03-23 21:04:00,
2013-03-23 14:09:00,64.7,18.8,29.73,WNW,290,10.0,16.0,17,0.00,,,0.00,Wunderground v.1.15,2013-03-23 21:09:00,
2013-03-23 14:15:00,64.1,19.7,29.71,NNW,338,7.0,10.0,18,0.00,,,0.00,Wunderground v.1.15,2013-03-23 21:15:00,
2013-03-23 14:20:00,64.9,20.3,29.72,WNW,302,6.0,6.0,18,0.00,,,0.00,Wunderground v.1.15,2013-03-23 21:20:00,
2013-03-23 14:25:00,64.9,20.3,29.72,NW,325,7.0,10.0,18,0.00,,,0.00,Wunderground v.1.15,2013-03-23 21:25:00,
2013-03-23 14:31:00,65.2,19.2,29.71,NW,310,7.0,11.0,17,0.00,,,0.00,Wunderground v.1.15,2013-03-23 21:31:00,
2013-03-23 14:37:00,64.7,20.2,29.71,NW,315,9.0,13.0,18,0.00,,,0.00,Wunderground v.1.15,2013-03-23 21:37:00,
2013-03-23 14:42:00,64.6,20.1,29.71,NW,321,9.0,10.0,18,0.00,,,0.00,Wunderground v.1.15,2013-03-23 21:42:00,
2013-03-23 14:48:00,64.1,19.7,29.71,NNW,327,10.0,18.0,18,0.00,,,0.00,Wunderground v.1.15,2013-03-23 21:48:00,
2013-03-23 14:54:00,64.1,19.7,29.71,NNW,333,12.0,20.0,18,0.00,,,0.00,Wunderground v.1.15,2013-03-23 21:54:00,
2013-03-23 15:00:00,63.9,19.5,29.72,NW,306,10.0,10.0,18,0.00,,,0.00,Wunderground v.1.15,2013-03-23 22:00:00,
2013-03-23 15:06:00,64.8,20.2,29.71,NW,321,9.0,15.0,18,0.00,,,0.00,Wunderground v.1.15,2013-03-23 22:06:00,
2013-03-23 15:12:00,65.1,19.2,29.72,NNW,330,9.0,11.0,17,0.00,,,0.00,Wunderground v.1.15,2013-03-23 22:12:00,
2013-03-23 15:18:00,64.6,20.1,29.72,WNW,300,9.0,12.0,18,0.00,,,0.00,Wunderground v.1.15,2013-03-23 22:18:00,
2013-03-23 15:23:00,64.8,17.5,29.72,WNW,294,9.0,14.0,16,0.00,,,0.00,Wunderground v.1.15,2013-03-23 22:23:00,
2013-03-23 15:28:00,64.7,18.8,29.72,NW,315,9.0,15.0,17,0.00,,,0.00,Wunderground v.1.15,2013-03-23 22:28:00,
2013-03-23 15:34:00,64.6,18.7,29.72,North,360,9.0,14.0,17,0.00,,,0.00,Wunderground v.1.15,2013-03-23 22:34:00,
2013-03-23 15:39:00,64.0,18.3,29.72,NNW,340,11.0,15.0,17,0.00,,,0.00,Wunderground v.1.15,2013-03-23 22:39:00,
2013-03-23 15:45:00,64.1,18.3,29.72,NNW,328,10.0,15.0,17,0.00,,,0.00,Wunderground v.1.15,2013-03-23 22:45:00,
2013-03-23 15:50:00,64.2,18.4,29.72,NW,313,10.0,10.0,17,0.00,,,0.00,Wunderground v.1.15,2013-03-23 22:50:00,
2013-03-23 15:56:00,63.9,19.5,29.72,NW,309,10.0,11.0,18,0.00,,,0.00,Wunderground v.1.15,2013-03-23 22:56:00,
2013-03-23 16:02:00,64.0,18.3,29.71,WNW,295,9.0,9.0,17,0.00,,,0.00,Wunderground v.1.15,2013-03-23 23:02:00,
2013-03-23 16:08:00,63.9,18.2,29.71,WNW,303,9.0,10.0,17,0.00,,,0.00,Wunderground v.1.15,2013-03-23 23:08:00,
2013-03-23 16:13:00,63.9,18.2,29.71,NNW,329,9.0,12.0,17,0.00,,,0.00,Wunderground v.1.15,2013-03-23 23:13:00,
2013-03-23 16:19:00,64.0,18.3,29.71,NW,317,8.0,12.0,17,0.00,,,0.00,Wunderground v.1.15,2013-03-23 23:19:00,
2013-03-23 16:24:00,64.1,18.3,29.71,NW,319,7.0,10.0,17,0.00,,,0.00,Wunderground v.1.15,2013-03-23 23:24:00,
2013-03-23 16:30:00,63.4,19.1,29.71,WNW,302,9.0,9.0,18,0.00,,,0.00,Wunderground v.1.15,2013-03-23 23:30:00,
2013-03-23 16:37:00,63.2,18.9,29.71,NW,315,8.0,10.0,18,0.00,,,0.00,Wunderground v.1.15,2013-03-23 23:37:00,
2013-03-23 16:43:00,63.3,19.0,29.71,NW,325,8.0,9.0,18,0.00,,,0.00,Wunderground v.1.15,2013-03-23 23:43:00,
2013-03-23 16:49:00,63.2,18.9,29.71,North,350,8.0,9.0,18,0.00,,,0.00,Wunderground v.1.15,2013-03-23 23:49:00,
2013-03-23 16:54:00,63.1,18.9,29.71,NW,309,7.0,8.0,18,0.00,,,0.00,Wunderground v.1.15,2013-03-23 23:54:00,
2013-03-23 17:00:00,63.2,18.9,29.72,NW,315,7.0,12.0,18,0.00,,,0.00,Wunderground v.1.15,2013-03-24 00:00:00,
2013-03-23 17:05:00,62.9,18.7,29.72,NNW,339,7.0,12.0,18,0.00,,,0.00,Wunderground v.1.15,2013-03-24 00:05:00,
2013-03-23 17:12:00,62.6,19.7,29.71,NW,321,8.0,10.0,19,0.00,,,0.00,Wunderground v.1.15,2013-03-24 00:12:00,
2013-03-23 17:17:00,62.4,19.5,29.72,NNE,13,8.0,13.0,19,0.00,,,0.00,Wunderground v.1.15,2013-03-24 00:17:00,
2013-03-23 17:23:00,62.2,20.6,29.72,WNW,296,7.0,8.0,20,0.00,,,0.00,Wunderground v.1.15,2013-03-24 00:23:00,
2013-03-23 17:28:00,62.4,20.8,29.72,WNW,303,6.0,11.0,20,0.00,,,0.00,Wunderground v.1.15,2013-03-24 00:28:00,
2013-03-23 17:34:00,62.0,20.4,29.72,NW,313,6.0,13.0,20,0.00,,,0.00,Wunderground v.1.15,2013-03-24 00:34:00,
2013-03-23 17:39:00,61.4,21.1,29.73,NW,315,8.0,13.0,21,0.00,,,0.00,Wunderground v.1.15,2013-03-24 00:39:00,
2013-03-23 17:45:00,61.2,20.9,29.72,NNW,327,7.0,8.0,21,0.00,,,0.00,Wunderground v.1.15,2013-03-24 00:45:00,
2013-03-23 17:51:00,60.5,20.3,29.73,NNW,342,5.0,10.0,21,0.00,,,0.00,Wunderground v.1.15,2013-03-24 00:51:00,
2013-03-23 17:56:00,59.6,20.7,29.72,NNW,329,7.0,10.0,22,0.00,,,0.00,Wunderground v.1.15,2013-03-24 00:56:00,
2013-03-23 18:02:00,59.1,20.2,29.73,NW,317,6.0,7.0,22,0.00,,,0.00,Wunderground v.1.15,2013-03-24 01:02:00,
2013-03-23 18:07:00,58.9,21.1,29.73,NW,322,6.0,8.0,23,0.00,,,0.00,Wunderground v.1.15,2013-03-24 01:07:00,
2013-03-23 18:12:00,58.6,20.9,29.73,NW,314,6.0,6.0,23,0.00,,,0.00,Wunderground v.1.15,2013-03-24 01:12:00,
2013-03-23 18:18:00,58.3,20.6,29.73,NW,304,7.0,12.0,23,0.00,,,0.00,Wunderground v.1.15,2013-03-24 01:18:00,
2013-03-23 18:24:00,57.9,21.3,29.73,North,360,7.0,13.0,24,0.00,,,0.00,Wunderground v.1.15,2013-03-24 01:24:00,
2013-03-23 18:30:00,57.5,20.9,29.73,NNW,330,6.0,10.0,24,0.00,,,0.00,Wunderground v.1.15,2013-03-24 01:30:00,
2013-03-23 18:36:00,57.5,20.9,29.74,NW,314,6.0,10.0,24,0.00,,,0.00,Wunderground v.1.15,2013-03-24 01:36:00,
2013-03-23 18:42:00,57.1,20.6,29.74,WNW,299,7.0,7.0,24,0.00,,,0.00,Wunderground v.1.15,2013-03-24 01:42:00,
2013-03-23 18:48:00,56.8,20.3,29.74,NW,314,6.0,10.0,24,0.00,,,0.00,Wunderground v.1.15,2013-03-24 01:48:00,
2013-03-23 18:54:00,56.5,20.1,29.74,North,355,6.0,7.0,24,0.00,,,0.00,Wunderground v.1.15,2013-03-24 01:54:00,
2013-03-23 19:00:00,56.1,19.8,29.74,NW,321,7.0,9.0,24,0.00,,,0.00,Wunderground v.1.15,2013-03-24 02:00:00,
2013-03-23 19:06:00,55.9,18.6,29.75,NW,326,7.0,9.0,23,0.00,,,0.00,Wunderground v.1.15,2013-03-24 02:06:00,
2013-03-23 19:11:00,55.6,18.3,29.75,NW,325,5.0,8.0,23,0.00,,,0.00,Wunderground v.1.15,2013-03-24 02:11:00,
2013-03-23 19:17:00,55.3,18.1,29.75,NW,319,5.0,8.0,23,0.00,,,0.00,Wunderground v.1.15,2013-03-24 02:17:00,
2013-03-23 19:22:00,55.1,17.9,29.75,NW,326,6.0,8.0,23,0.00,,,0.00,Wunderground v.1.15,2013-03-24 02:22:00,
2013-03-23 19:27:00,54.8,17.7,29.76,NW,317,6.0,8.0,23,0.00,,,0.00,Wunderground v.1.15,2013-03-24 02:27:00,
2013-03-23 19:33:00,54.5,17.4,29.76,NW,318,6.0,8.0,23,0.00,,,0.00,Wunderground v.1.15,2013-03-24 02:33:00,
2013-03-23 19:39:00,54.2,17.1,29.77,NNW,329,6.0,8.0,23,0.00,,,0.00,Wunderground v.1.15,2013-03-24 02:39:00,
2013-03-23 19:45:00,54.0,17.0,29.77,NW,315,6.0,6.0,23,0.00,,,0.00,Wunderground v.1.15,2013-03-24 02:45:00,
2013-03-23 19:51:00,53.8,16.8,29.77,NNW,329,5.0,5.0,23,0.00,,,0.00,Wunderground v.1.15,2013-03-24 02:51:00,
2013-03-23 19:56:00,53.5,15.5,29.78,NNW,345,5.0,8.0,22,0.00,,,0.00,Wunderground v.1.15,2013-03-24 02:56:00,
2013-03-23 20:02:00,53.4,16.5,29.78,NW,319,5.0,5.0,23,0.00,,,0.00,Wunderground v.1.15,2013-03-24 03:02:00,
2013-03-23 20:07:00,53.2,15.3,29.79,NW,323,5.0,8.0,22,0.00,,,0.00,Wunderground v.1.15,2013-03-24 03:07:00,
2013-03-23 20:13:00,53.0,15.1,29.79,NW,322,6.0,8.0,22,0.00,,,0.00,Wunderground v.1.15,2013-03-24 03:13:00,
2013-03-23 20:19:00,52.9,15.0,29.79,NNW,331,6.0,8.0,22,0.00,,,0.00,Wunderground v.1.15,2013-03-24 03:19:00,
2013-03-23 20:24:00,52.7,14.9,29.80,NW,319,5.0,9.0,22,0.00,,,0.00,Wunderground v.1.15,2013-03-24 03:24:00,
2013-03-23 20:30:00,52.6,14.8,29.80,NNW,329,5.0,5.0,22,0.00,,,0.00,Wunderground v.1.15,2013-03-24 03:30:00,
2013-03-23 20:35:00,52.4,14.6,29.80,NW,315,5.0,8.0,22,0.00,,,0.00,Wunderground v.1.15,2013-03-24 03:35:00,
2013-03-23 20:40:00,52.2,14.4,29.80,NW,319,6.0,6.0,22,0.00,,,0.00,Wunderground v.1.15,2013-03-24 03:40:00,
2013-03-23 20:45:00,52.1,14.4,29.80,NW,322,5.0,7.0,22,0.00,,,0.00,Wunderground v.1.15,2013-03-24 03:45:00,
2013-03-23 20:51:00,52.0,14.3,29.80,NW,326,5.0,6.0,22,0.00,,,0.00,Wunderground v.1.15,2013-03-24 03:51:00,
2013-03-23 20:57:00,51.8,14.1,29.81,NW,313,5.0,7.0,22,0.00,,,0.00,Wunderground v.1.15,2013-03-24 03:57:00,
2013-03-23 21:00:00,51.8,14.1,29.80,NW,325,6.0,6.0,22,0.00,,,0.00,Wunderground v.1.15,2013-03-24 04:00:00,
2013-03-23 21:01:00,51.7,14.0,29.80,NW,325,6.0,6.0,22,0.00,,,0.00,Wunderground v.1.15,2013-03-24 04:01:00,
2013-03-23 21:04:00,51.7,14.0,29.80,NNW,331,6.0,7.0,22,0.00,,,0.00,Wunderground v.1.15,2013-03-24 04:04:00,
2013-03-23 21:05:00,51.6,13.9,29.80,NW,322,6.0,7.0,22,0.00,,,0.00,Wunderground v.1.15,2013-03-24 04:05:00,
2013-03-23 21:11:00,51.6,13.9,29.81,NNW,327,6.0,9.0,22,0.00,,,0.00,Wunderground v.1.15,2013-03-24 04:11:00,
2013-03-23 21:17:00,51.4,13.8,29.81,NNW,336,5.0,9.0,22,0.00,,,0.00,Wunderground v.1.15,2013-03-24 04:17:00,
2013-03-23 21:22:00,51.3,13.7,29.81,NW,317,5.0,8.0,22,0.00,,,0.00,Wunderground v.1.15,2013-03-24 04:22:00,
2013-03-23 21:27:00,51.2,13.6,29.81,NW,320,6.0,9.0,22,0.00,,,0.00,Wunderground v.1.15,2013-03-24 04:27:00,
2013-03-23 21:32:00,51.1,14.5,29.82,NNW,336,6.0,6.0,23,0.00,,,0.00,Wunderground v.1.15,2013-03-24 04:32:00,
2013-03-23 21:38:00,51.0,13.4,29.81,North,355,6.0,8.0,22,0.00,,,0.00,Wunderground v.1.15,2013-03-24 04:38:00,
2013-03-23 21:44:00,50.9,13.3,29.81,NW,323,6.0,9.0,22,0.00,,,0.00,Wunderground v.1.15,2013-03-24 04:44:00,
2013-03-23 21:50:00,50.9,13.3,29.81,NW,323,5.0,6.0,22,0.00,,,0.00,Wunderground v.1.15,2013-03-24 04:50:00,
2013-03-23 21:55:00,50.8,14.3,29.81,NW,321,5.0,6.0,23,0.00,,,0.00,Wunderground v.1.15,2013-03-24 04:55:00,
2013-03-23 22:01:00,50.8,14.3,29.81,NW,323,5.0,6.0,23,0.00,,,0.00,Wunderground v.1.15,2013-03-24 05:01:00,
2013-03-23 22:06:00,50.8,14.3,29.81,NW,312,5.0,8.0,23,0.00,,,0.00,Wunderground v.1.15,2013-03-24 05:06:00,
2013-03-23 22:12:00,50.8,14.3,29.82,NW,315,5.0,6.0,23,0.00,,,0.00,Wunderground v.1.15,2013-03-24 05:12:00,
2013-03-23 22:17:00,50.8,14.3,29.82,NNW,337,5.0,7.0,23,0.00,,,0.00,Wunderground v.1.15,2013-03-24 05:17:00,
2013-03-23 22:23:00,50.9,14.4,29.82,NW,323,4.0,5.0,23,0.00,,,0.00,Wunderground v.1.15,2013-03-24 05:23:00,
2013-03-23 22:29:00,50.8,14.3,29.82,NNW,329,4.0,7.0,23,0.00,,,0.00,Wunderground v.1.15,2013-03-24 05:29:00,
2013-03-23 22:35:00,50.6,14.1,29.82,NW,314,4.0,7.0,23,0.00,,,0.00,Wunderground v.1.15,2013-03-24 05:35:00,
2013-03-23 22:41:00,50.4,13.9,29.82,NW,320,4.0,6.0,23,0.00,,,0.00,Wunderground v.1.15,2013-03-24 05:41:00,
2013-03-23 22:47:00,50.4,13.9,29.82,NW,319,4.0,6.0,23,0.00,,,0.00,Wunderground v.1.15,2013-03-24 05:47:00,
2013-03-23 22:52:00,50.3,13.9,29.82,NNW,333,4.0,6.0,23,0.00,,,0.00,Wunderground v.1.15,2013-03-24 05:52:00,
2013-03-23 22:58:00,50.3,13.9,29.82,NW,309,5.0,7.0,23,0.00,,,0.00,Wunderground v.1.15,2013-03-24 05:58:00,
2013-03-23 23:04:00,50.3,13.9,29.82,NW,326,5.0,7.0,23,0.00,,,0.00,Wunderground v.1.15,2013-03-24 06:04:00,
2013-03-23 23:09:00,50.2,13.8,29.82,North,349,5.0,7.0,23,0.00,,,0.00,Wunderground v.1.15,2013-03-24 06:09:00,
2013-03-23 23:15:00,50.1,13.7,29.82,NW,326,4.0,6.0,23,0.00,,,0.00,Wunderground v.1.15,2013-03-24 06:15:00,
2013-03-23 23:21:00,50.0,13.6,29.82,North,5,4.0,8.0,23,0.00,,,0.00,Wunderground v.1.15,2013-03-24 06:21:00,
2013-03-23 23:26:00,50.0,13.6,29.82,NW,321,5.0,8.0,23,0.00,,,0.00,Wunderground v.1.15,2013-03-24 06:26:00,
2013-03-23 23:32:00,50.0,13.6,29.82,NNW,341,5.0,5.0,23,0.00,,,0.00,Wunderground v.1.15,2013-03-24 06:32:00,
2013-03-23 23:37:00,50.0,13.6,29.82,North,355,4.0,5.0,23,0.00,,,0.00,Wunderground v.1.15,2013-03-24 06:37:00,
2013-03-23 23:43:00,49.7,13.3,29.82,NW,319,4.0,6.0,23,0.00,,,0.00,Wunderground v.1.15,2013-03-24 06:43:00,
2013-03-23 23:49:00,49.7,13.3,29.83,NW,313,3.0,6.0,23,0.00,,,0.00,Wunderground v.1.15,2013-03-24 06:49:00,
2013-03-23 23:54:00,49.7,13.3,29.83,NW,320,3.0,3.0,23,0.00,,,0.00,Wunderground v.1.15,2013-03-24 06:54:00,